Location: Ebersheim
(48.3033°N, 7.4991°E)
Time: 17:46:26
(UTC+00:00)

Cosmos 2082 - Pass Details

Date: 27 February 2020
Orbit: 832 x 857 km, 71.0° (Epoch: 31 March)

Event Time Altitude Azimuth Distance (km) Brightness Sun altitude
Rises 20:04:11 0° 332° (NNW) 3,434 7.6 -29.3°
Reaches altitude 10° 20:06:39 10° 333° (NNW) 2,496 6.7 -29.6°
Enters shadow 20:11:24 62° 343° (NNW) 960 4.0 -30.4°
